Location: Kalberh�ni
(46.4610°N, 7.2453°E)
Time: 00:51:28
(UTC+00:00)

Cosmos 1816 Rocket - Visible Passes

Search period start: 24 October 2021 00:00
Search period end: 03 November 2021 00:00
Orbit: 950 x 1000 km, 82.9° (Epoch: 23 October)

Date Brightness Start Highest point End Pass type
(mag) Time Alt. Az. Time Alt. Az. Time Alt. Az.
24 Oct 5.4 18:22:33 10° N 18:26:53 28° NE 18:26:53 28° NE visible
24 Oct 5.7 20:07:36 10° NNW 20:11:34 37° NW 20:11:34 37° NW visible
25 Oct 4.8 18:47:31 10° N 18:52:27 45° NE 18:52:27 45° NE visible
25 Oct 6.3 20:33:26 10° NNW 20:37:08 26° WNW 20:37:08 26° WNW visible
26 Oct 5.9 17:29:01 10° NNE 17:32:35 16° ENE 17:33:23 15° ENE visible
26 Oct 4.5 19:12:43 10° N 19:18:04 68° N 19:18:04 68° N visible
26 Oct 6.9 20:59:53 10° NW 21:02:46 16° WNW 21:02:46 16° WNW visible
27 Oct 5.3 17:53:21 10° NNE 17:58:28 26° ENE 17:59:06 26° ENE visible
27 Oct 5.0 19:38:11 10° NNW 19:43:49 55° WNW 19:43:49 55° WNW visible
28 Oct 4.7 18:18:14 10° N 18:24:08 44° ENE 18:24:57 41° E visible
28 Oct 5.9 20:03:55 10° NNW 20:09:21 33° W 20:09:40 33° W visible
29 Oct 6.0 17:00:09 10° NNE 17:03:05 13° ENE 17:06:02 10° E visible
29 Oct 4.3 18:43:24 10° N 18:49:37 74° E 18:51:00 55° SSE visible
29 Oct 6.7 20:30:08 10° NW 20:34:17 19° W 20:35:44 18° W visible
30 Oct 5.5 17:24:12 10° NNE 17:29:01 23° ENE 17:32:36 14° ESE visible
30 Oct 4.7 19:08:48 10° NNW 19:14:57 66° W 19:17:22 38° SSW visible
30 Oct 7.3 20:58:39 10° WNW 20:59:05 10° WNW 20:59:30 10° WNW visible
31 Oct 4.9 17:48:59 10° N 17:54:45 38° ENE 17:59:36 14° SE visible
31 Oct 5.7 19:34:26 10° NNW 19:40:06 38° W 19:44:26 16° SSW visible
01 Nov 7.7 05:42:22 10° E 05:43:18 10° ENE 05:44:16 10° ENE visible
01 Nov 4.4 18:14:05 10° N 18:20:16 65° ENE 18:26:31 10° SSE visible
01 Nov 6.6 20:00:29 10° NW 20:05:06 22° W 20:09:44 10° SW visible
02 Nov 5.7 16:55:06 10° NNE 16:59:34 20° ENE 17:04:02 10° ESE visible
02 Nov 4.6 18:39:25 10° NNW 18:45:39 76° W 18:51:55 10° S visible
02 Nov 7.2 20:27:35 10° NW 20:29:55 12° WNW 20:32:16 10° W visible
